Time,TemperatureF,DewpointF,PressureIn,WindDirection,WindDirectionDegrees,WindSpeedMPH,WindSpeedGustMPH,Humidity,HourlyPrecipIn,Conditions,Clouds,dailyrainin,SoftwareType,DateUTC
2013-12-03 00:00:00,34.1,32.3,29.84,ESE,103,1.0,8.0,93,0.01,,---,0.00,VWS V14.01,2013-12-03 05:00:00,
2013-12-03 00:01:00,34.1,32.3,29.84,ESE,103,1.0,8.0,93,0.01,,---,0.00,VWS V14.01,2013-12-03 05:01:00,
2013-12-03 00:30:00,34.1,32.3,29.84,ESE,103,3.0,8.0,93,0.01,,---,0.00,VWS V14.01,2013-12-03 05:30:00,
2013-12-03 00:31:00,34.1,32.3,29.84,ESE,103,3.0,8.0,93,0.01,,---,0.00,VWS V14.01,2013-12-03 05:31:00,
2013-12-03 01:00:00,34.3,32.8,29.83,NE,46,3.0,8.0,94,0.04,,---,0.03,VWS V14.01,2013-12-03 06:00:00,
2013-12-03 01:01:00,34.3,32.8,29.83,NE,46,3.0,8.0,94,0.04,,---,0.03,VWS V14.01,2013-12-03 06:01:00,
2013-12-03 01:30:00,34.3,32.8,29.83,ESE,122,3.0,6.0,94,0.07,,---,0.07,VWS V14.01,2013-12-03 06:30:00,
2013-12-03 01:31:00,34.3,32.8,29.83,ESE,122,3.0,6.0,94,0.07,,---,0.07,VWS V14.01,2013-12-03 06:31:00,
2013-12-03 02:00:00,34.3,33.0,29.82,SE,129,3.0,8.0,95,0.13,,---,0.13,VWS V14.01,2013-12-03 07:00:00,
2013-12-03 02:01:00,34.3,33.0,29.82,SE,129,3.0,8.0,95,0.13,,---,0.13,VWS V14.01,2013-12-03 07:01:00,
2013-12-03 02:30:00,34.4,33.1,29.81,East,92,2.0,8.0,95,0.10,,---,0.13,VWS V14.01,2013-12-03 07:30:00,
2013-12-03 02:31:00,34.4,33.1,29.81,East,92,2.0,8.0,95,0.10,,---,0.13,VWS V14.01,2013-12-03 07:31:00,
2013-12-03 03:00:00,34.6,33.3,29.82,East,88,4.0,7.0,95,0.06,,---,0.13,VWS V14.01,2013-12-03 08:00:00,
2013-12-03 03:01:00,34.6,33.3,29.82,East,88,4.0,7.0,95,0.06,,---,0.13,VWS V14.01,2013-12-03 08:01:00,
2013-12-03 03:31:00,34.6,33.3,29.82,East,86,3.0,8.0,95,0.00,,---,0.13,VWS V14.01,2013-12-03 08:31:00,
2013-12-03 04:00:00,34.7,33.4,29.81,ESE,107,2.0,9.0,95,0.00,,---,0.13,VWS V14.01,2013-12-03 09:00:00,
2013-12-03 04:01:00,34.7,33.4,29.81,ESE,107,2.0,9.0,95,0.00,,---,0.13,VWS V14.01,2013-12-03 09:01:00,
2013-12-03 04:30:00,34.8,33.5,29.81,ESE,121,2.0,5.0,95,0.00,,---,0.13,VWS V14.01,2013-12-03 09:30:00,
2013-12-03 04:31:00,34.8,33.5,29.81,ESE,121,2.0,5.0,95,0.00,,---,0.13,VWS V14.01,2013-12-03 09:31:00,
2013-12-03 05:00:00,35.0,33.7,29.81,ESE,104,1.0,5.0,95,0.00,,---,0.13,VWS V14.01,2013-12-03 10:00:00,
2013-12-03 05:01:00,35.0,33.7,29.81,ESE,104,1.0,5.0,95,0.00,,---,0.13,VWS V14.01,2013-12-03 10:01:00,
2013-12-03 05:30:00,35.1,33.8,29.79,ESE,113,3.0,9.0,95,0.00,,---,0.13,VWS V14.01,2013-12-03 10:30:00,
2013-12-03 05:31:00,35.1,33.8,29.79,ESE,113,3.0,9.0,95,0.00,,---,0.13,VWS V14.01,2013-12-03 10:31:00,
2013-12-03 06:00:00,35.2,33.9,29.80,East,96,2.0,7.0,95,0.00,,---,0.13,VWS V14.01,2013-12-03 11:00:00,
2013-12-03 06:01:00,35.2,33.9,29.80,East,96,2.0,7.0,95,0.00,,---,0.13,VWS V14.01,2013-12-03 11:01:00,
2013-12-03 06:31:00,35.5,34.5,29.81,ESE,119,2.0,5.0,96,0.00,,---,0.13,VWS V14.01,2013-12-03 11:31:00,
2013-12-03 07:00:00,35.8,34.8,29.81,SSE,151,0.0,6.0,96,0.00,,---,0.13,VWS V14.01,2013-12-03 12:00:00,
2013-12-03 07:01:00,35.8,34.8,29.81,SSE,151,0.0,6.0,96,0.00,,---,0.13,VWS V14.01,2013-12-03 12:01:00,
2013-12-03 07:31:00,35.8,34.8,29.81,East,95,2.0,8.0,96,0.00,,---,0.13,VWS V14.01,2013-12-03 12:31:00,
2013-12-03 08:00:00,36.0,35.0,29.81,ESE,108,4.0,5.0,96,0.00,,---,0.13,VWS V14.01,2013-12-03 13:00:00,
2013-12-03 08:01:00,36.0,35.0,29.81,ESE,108,4.0,5.0,96,0.00,,---,0.13,VWS V14.01,2013-12-03 13:01:00,
2013-12-03 08:31:00,36.4,35.4,29.81,SE,131,2.0,7.0,96,0.00,,---,0.13,VWS V14.01,2013-12-03 13:31:00,
2013-12-03 09:00:00,37.1,36.1,29.81,ESE,117,3.0,7.0,96,0.00,,---,0.13,VWS V14.01,2013-12-03 14:00:00,
2013-12-03 09:01:00,37.1,36.1,29.81,ESE,117,3.0,7.0,96,0.00,,---,0.13,VWS V14.01,2013-12-03 14:01:00,
2013-12-03 09:30:00,37.8,36.5,29.81,ESE,119,4.0,6.0,95,0.00,,---,0.13,VWS V14.01,2013-12-03 14:30:00,
2013-12-03 09:31:00,37.8,36.5,29.81,ESE,119,4.0,6.0,95,0.00,,---,0.13,VWS V14.01,2013-12-03 14:31:00,
2013-12-03 10:01:00,38.6,37.3,29.82,SE,124,2.0,7.0,95,0.00,,---,0.13,VWS V14.01,2013-12-03 15:01:00,
2013-12-03 10:31:00,39.3,37.7,29.83,East,99,5.0,6.0,94,0.00,,---,0.13,VWS V14.01,2013-12-03 15:31:00,
2013-12-03 11:01:00,40.0,38.7,29.83,SE,142,3.0,7.0,95,0.01,,---,0.14,VWS V14.01,2013-12-03 16:01:00,
2013-12-03 11:31:00,41.1,39.8,29.82,SE,137,4.0,8.0,95,0.01,,---,0.14,VWS V14.01,2013-12-03 16:31:00,
2013-12-03 12:00:00,43.0,41.1,29.82,ESE,113,1.0,9.0,93,0.01,,---,0.14,VWS V14.01,2013-12-03 17:00:00,
2013-12-03 12:01:00,43.0,41.1,29.82,ESE,113,1.0,9.0,93,0.01,,---,0.14,VWS V14.01,2013-12-03 17:01:00,
2013-12-03 12:30:00,44.0,41.8,29.81,SE,141,2.0,7.0,92,0.00,,---,0.14,VWS V14.01,2013-12-03 17:30:00,
2013-12-03 12:31:00,44.0,41.8,29.81,SE,141,2.0,7.0,92,0.00,,---,0.14,VWS V14.01,2013-12-03 17:31:00,
2013-12-03 13:00:00,44.8,42.6,29.80,SSE,150,2.0,6.0,92,0.00,,---,0.14,VWS V14.01,2013-12-03 18:00:00,
2013-12-03 13:01:00,44.8,42.6,29.80,SSE,150,2.0,6.0,92,0.00,,---,0.14,VWS V14.01,2013-12-03 18:01:00,
2013-12-03 13:30:00,46.3,43.8,29.78,SE,146,2.0,9.0,91,0.00,,---,0.14,VWS V14.01,2013-12-03 18:30:00,
2013-12-03 13:31:00,46.3,43.8,29.78,SE,146,2.0,9.0,91,0.00,,---,0.14,VWS V14.01,2013-12-03 18:31:00,
2013-12-03 14:00:00,47.6,44.8,29.77,SE,142,2.0,7.0,90,0.00,,---,0.14,VWS V14.01,2013-12-03 19:00:00,
2013-12-03 14:01:00,47.6,44.8,29.77,SE,142,2.0,7.0,90,0.00,,---,0.14,VWS V14.01,2013-12-03 19:01:00,
2013-12-03 14:30:00,47.8,45.0,29.76,SSE,155,3.0,9.0,90,0.00,,---,0.14,VWS V14.01,2013-12-03 19:30:00,
2013-12-03 14:31:00,47.8,45.0,29.76,SSE,155,3.0,9.0,90,0.00,,---,0.14,VWS V14.01,2013-12-03 19:31:00,
2013-12-03 15:01:00,48.6,46.1,29.76,ESE,118,3.0,6.0,91,0.00,,---,0.14,VWS V14.01,2013-12-03 20:01:00,
2013-12-03 15:31:00,49.3,46.5,29.76,ESE,103,3.0,5.0,90,0.00,,---,0.14,VWS V14.01,2013-12-03 20:31:00,
2013-12-03 16:01:00,49.3,46.5,29.76,ESE,103,2.0,6.0,90,0.00,,---,0.14,VWS V14.01,2013-12-03 21:01:00,
2013-12-03 16:30:00,48.8,46.0,29.77,SE,132,0.0,5.0,90,0.00,,---,0.14,VWS V14.01,2013-12-03 21:30:00,
2013-12-03 16:31:00,48.8,46.0,29.77,SE,132,0.0,5.0,90,0.00,,---,0.14,VWS V14.01,2013-12-03 21:31:00,
2013-12-03 17:01:00,48.2,45.7,29.77,SSW,210,1.0,4.0,91,0.00,,---,0.14,VWS V14.01,2013-12-03 22:01:00,
2013-12-03 17:30:00,47.8,45.6,29.77,ESE,120,3.0,5.0,92,0.00,,---,0.14,VWS V14.01,2013-12-03 22:30:00,
2013-12-03 17:31:00,47.8,45.6,29.77,ESE,120,3.0,5.0,92,0.00,,---,0.14,VWS V14.01,2013-12-03 22:31:00,
2013-12-03 18:00:00,47.6,45.4,29.77,SE,124,4.0,5.0,92,0.00,,---,0.14,VWS V14.01,2013-12-03 23:00:00,
2013-12-03 18:01:00,47.6,45.4,29.77,SE,124,4.0,5.0,92,0.00,,---,0.14,VWS V14.01,2013-12-03 23:01:00,
2013-12-03 18:30:00,47.5,45.3,29.78,SSE,156,1.0,5.0,92,0.00,,---,0.14,VWS V14.01,2013-12-03 23:30:00,
2013-12-03 18:31:00,47.5,45.3,29.78,SSE,156,1.0,5.0,92,0.00,,---,0.14,VWS V14.01,2013-12-03 23:31:00,
2013-12-03 19:00:00,47.2,45.0,29.77,SSE,148,1.0,4.0,92,0.00,,---,0.14,VWS V14.01,2013-12-04 00:00:00,
2013-12-03 19:01:00,47.2,45.0,29.77,SSE,148,1.0,4.0,92,0.00,,---,0.14,VWS V14.01,2013-12-04 00:01:00,
2013-12-03 19:31:00,46.8,44.9,29.77,SE,129,2.0,5.0,93,0.00,,---,0.14,VWS V14.01,2013-12-04 00:31:00,
2013-12-03 20:00:00,46.6,44.7,29.78,SE,129,1.0,3.0,93,0.00,,---,0.14,VWS V14.01,2013-12-04 01:00:00,
2013-12-03 20:01:00,46.6,44.7,29.78,SE,129,1.0,3.0,93,0.00,,---,0.14,VWS V14.01,2013-12-04 01:01:00,
2013-12-03 20:31:00,46.7,44.8,29.78,SSE,160,1.0,4.0,93,0.00,,---,0.14,VWS V14.01,2013-12-04 01:31:00,
2013-12-03 21:01:00,46.9,45.0,29.78,SSE,148,2.0,7.0,93,0.00,,---,0.14,VWS V14.01,2013-12-04 02:01:00,
2013-12-03 21:30:00,47.3,45.4,29.79,SSE,153,0.0,5.0,93,0.00,,---,0.14,VWS V14.01,2013-12-04 02:30:00,
2013-12-03 21:31:00,47.3,45.4,29.79,SSE,153,0.0,5.0,93,0.00,,---,0.14,VWS V14.01,2013-12-04 02:31:00,
2013-12-03 22:00:00,47.5,45.3,29.80,SE,144,1.0,4.0,92,0.00,,---,0.14,VWS V14.01,2013-12-04 03:00:00,
2013-12-03 22:01:00,47.5,45.3,29.80,SE,144,1.0,4.0,92,0.00,,---,0.14,VWS V14.01,2013-12-04 03:01:00,
2013-12-03 22:30:00,47.1,44.9,29.80,SE,139,3.0,3.0,92,0.00,,---,0.14,VWS V14.01,2013-12-04 03:30:00,
2013-12-03 22:31:00,47.1,44.9,29.80,SE,139,3.0,3.0,92,0.00,,---,0.14,VWS V14.01,2013-12-04 03:31:00,
2013-12-03 23:00:00,46.8,44.6,29.82,SE,136,0.0,3.0,92,0.00,,---,0.14,VWS V14.01,2013-12-04 04:00:00,
2013-12-03 23:01:00,46.8,44.6,29.82,SE,136,0.0,3.0,92,0.00,,---,0.14,VWS V14.01,2013-12-04 04:01:00,
2013-12-03 23:30:00,46.6,44.7,29.82,ESE,113,1.0,3.0,93,0.00,,---,0.14,VWS V14.01,2013-12-04 04:30:00,
2013-12-03 23:31:00,46.6,44.7,29.82,ESE,113,1.0,3.0,93,0.00,,---,0.14,VWS V14.01,2013-12-04 04:31:00,